Location: Saratoga Springs
(43.0831°N, 73.7850°W)
Time: 01:21:07
(UTC-04:00)

Vanguard 2 Rocket - Pass Details

Date: 20 April 2024
Orbit: 556 x 3304 km, 32.9° (Epoch: 18 May)

Event Time Altitude Azimuth Distance (km) Brightness Sun altitude
Rises 03:20:27 0° 277° (W) 7,266 11.2 -25.8°
Reaches altitude 10° 03:25:43 10° 271° (W) 6,261 10.8 -25.2°
Maximum altitude 03:43:28 43° 209° (SSW) 3,609 9.4 -22.9°
Drops below altitude 10° 03:56:21 10° 144° (SE) 4,612 10.4 -21.2°
Sets 03:59:34 0° 137° (SE) 5,277 10.8 -20.8°
